Voltar ao catálogo

STARLINK-32134

AtivoComunicaçõesVLEO
NORAD 60300·PAYLOAD·🇺🇸 United States

Lançado Jul 28, 2024 de Cape Canaveral Space Force Station

Loading…

Próximas Passagens (próximas 24 horas)

TLE

AtualizadoSource: CelesTrak SupGP

Época: Sep 14, 2026, 22:33 UTC

1 60300C 24132Y   26257.94006944  .00043499  00000+0  12851-2 0  2573
2 60300  53.1564 251.3572 0001246 101.1459 272.8498 15.34371977    12

Acompanhe STARLINK-32134 em tempo real com AllMySat

Download on the App Store